Time,TemperatureF,DewpointF,PressureIn,WindDirection,WindDirectionDegrees,WindSpeedMPH,WindSpeedGustMPH,Humidity,HourlyPrecipIn,Conditions,Clouds,dailyrainin,SolarRadiationWatts/m^2,SoftwareType,DateUTC
2014-01-16 00:01:00,63.0,10.0,-100.00,South,182,2.0,15.0,12,0.00,,,0.00,0.000000,,2014-01-16 08:01:00,
2014-01-16 00:11:00,63.0,10.0,-100.00,South,182,2.0,15.0,12,0.00,,,0.00,0.000000,,2014-01-16 08:11:00,
2014-01-16 00:22:00,63.0,10.0,-100.00,South,182,2.0,15.0,12,0.00,,,0.00,0.000000,,2014-01-16 08:22:00,
2014-01-16 00:53:00,63.0,3.0,-100.00,East,93,2.0,5.0,9,0.00,,,0.00,0.000000,,2014-01-16 08:53:00,
2014-01-16 01:02:00,63.0,3.0,-100.00,East,93,2.0,5.0,9,0.00,,,0.00,0.000000,,2014-01-16 09:02:00,
2014-01-16 01:11:00,63.0,3.0,-100.00,East,93,2.0,5.0,9,0.00,,,0.00,0.000000,,2014-01-16 09:11:00,
2014-01-16 01:21:00,63.0,3.0,-100.00,East,93,2.0,5.0,9,0.00,,,0.00,0.000000,,2014-01-16 09:21:00,
2014-01-16 01:53:00,62.0,5.0,-100.00,WSW,247,2.0,4.0,10,0.00,,,0.00,0.000000,,2014-01-16 09:53:00,
2014-01-16 02:03:00,62.0,5.0,-100.00,WSW,247,2.0,4.0,10,0.00,,,0.00,0.000000,,2014-01-16 10:03:00,
2014-01-16 02:12:00,62.0,5.0,-100.00,WSW,247,2.0,4.0,10,0.00,,,0.00,0.000000,,2014-01-16 10:12:00,
2014-01-16 02:22:00,62.0,5.0,-100.00,WSW,247,2.0,4.0,10,0.00,,,0.00,0.000000,,2014-01-16 10:22:00,
2014-01-16 02:53:00,60.0,3.0,-100.00,SW,223,1.0,4.0,10,0.00,,,0.00,0.000000,,2014-01-16 10:53:00,
2014-01-16 03:02:00,60.0,3.0,-100.00,SW,223,1.0,4.0,10,0.00,,,0.00,0.000000,,2014-01-16 11:02:00,
2014-01-16 03:12:00,60.0,3.0,-100.00,SW,223,1.0,4.0,10,0.00,,,0.00,0.000000,,2014-01-16 11:12:00,
2014-01-16 03:22:00,60.0,3.0,-100.00,SW,223,1.0,4.0,10,0.00,,,0.00,0.000000,,2014-01-16 11:22:00,
2014-01-16 03:53:00,61.0,2.0,-100.00,ENE,60,4.0,5.0,9,0.00,,,0.00,0.000000,,2014-01-16 11:53:00,
2014-01-16 04:02:00,61.0,2.0,-100.00,ENE,60,4.0,5.0,9,0.00,,,0.00,0.000000,,2014-01-16 12:02:00,
2014-01-16 04:11:00,61.0,2.0,-100.00,ENE,60,4.0,5.0,9,0.00,,,0.00,0.000000,,2014-01-16 12:11:00,
2014-01-16 04:21:00,61.0,2.0,-100.00,ENE,60,4.0,5.0,9,0.00,,,0.00,0.000000,,2014-01-16 12:21:00,
2014-01-16 04:52:00,60.0,3.0,-100.00,North,-999,0.0,5.0,10,0.00,,,0.00,0.000000,,2014-01-16 12:52:00,
2014-01-16 05:01:00,60.0,3.0,-100.00,North,-999,0.0,5.0,10,0.00,,,0.00,0.000000,,2014-01-16 13:01:00,
2014-01-16 05:11:00,60.0,3.0,-100.00,North,-999,0.0,5.0,10,0.00,,,0.00,0.000000,,2014-01-16 13:11:00,
2014-01-16 05:21:00,60.0,3.0,-100.00,North,-999,0.0,5.0,10,0.00,,,0.00,0.000000,,2014-01-16 13:21:00,
2014-01-16 05:52:00,61.0,4.0,-100.00,North,-999,0.0,3.0,10,0.00,,,0.00,0.000000,,2014-01-16 13:52:00,
2014-01-16 06:02:00,61.0,4.0,-100.00,North,-999,0.0,3.0,10,0.00,,,0.00,0.000000,,2014-01-16 14:02:00,
2014-01-16 06:11:00,61.0,4.0,-100.00,North,-999,0.0,3.0,10,0.00,,,0.00,0.000000,,2014-01-16 14:11:00,
2014-01-16 06:21:00,61.0,4.0,-100.00,North,-999,0.0,3.0,10,0.00,,,0.00,0.000000,,2014-01-16 14:21:00,
2014-01-16 06:52:00,62.0,3.0,-100.00,NE,42,3.0,3.0,9,0.00,,,0.00,0.000000,,2014-01-16 14:52:00,
2014-01-16 07:02:00,62.0,3.0,-100.00,NE,42,3.0,3.0,9,0.00,,,0.00,0.000000,,2014-01-16 15:02:00,
2014-01-16 07:11:00,62.0,3.0,-100.00,NE,42,3.0,3.0,9,0.00,,,0.00,0.000000,,2014-01-16 15:11:00,
2014-01-16 07:21:00,62.0,3.0,-100.00,NE,42,3.0,3.0,9,0.00,,,0.00,0.000000,,2014-01-16 15:21:00,
2014-01-16 07:53:00,63.0,6.0,-100.00,ENE,58,4.0,6.0,10,0.00,,,0.00,1.000000,,2014-01-16 15:53:00,
2014-01-16 08:03:00,63.0,6.0,-100.00,ENE,58,4.0,6.0,10,0.00,,,0.00,1.000000,,2014-01-16 16:03:00,
2014-01-16 08:13:00,63.0,6.0,-100.00,ENE,58,4.0,6.0,10,0.00,,,0.00,1.000000,,2014-01-16 16:13:00,
2014-01-16 08:23:00,63.0,6.0,-100.00,ENE,58,4.0,6.0,10,0.00,,,0.00,1.000000,,2014-01-16 16:23:00,
2014-01-16 11:52:00,72.0,10.0,-100.00,South,175,6.0,9.0,9,0.00,,,0.00,631.000000,,2014-01-16 19:52:00,
2014-01-16 12:01:00,72.0,10.0,-100.00,South,175,6.0,9.0,9,0.00,,,0.00,631.000000,,2014-01-16 20:01:00,
2014-01-16 12:21:00,72.0,10.0,-100.00,South,175,6.0,9.0,9,0.00,,,0.00,631.000000,,2014-01-16 20:21:00,
2014-01-16 14:23:00,71.0,24.0,-100.00,SW,226,5.0,8.0,17,0.00,,,0.00,676.000000,,2014-01-16 22:23:00,
2014-01-16 14:52:00,71.0,25.0,-100.00,SW,216,7.0,9.0,18,0.00,,,0.00,592.000000,,2014-01-16 22:52:00,
2014-01-16 15:02:00,71.0,25.0,-100.00,SW,216,7.0,9.0,18,0.00,,,0.00,592.000000,,2014-01-16 23:02:00,
2014-01-16 15:12:00,71.0,25.0,-100.00,SW,216,7.0,9.0,18,0.00,,,0.00,592.000000,,2014-01-16 23:12:00,
2014-01-16 15:22:00,71.0,25.0,-100.00,SW,216,7.0,9.0,18,0.00,,,0.00,592.000000,,2014-01-16 23:22:00,
2014-01-16 15:53:00,70.0,22.0,-100.00,SW,233,5.0,9.0,16,0.00,,,0.00,447.000000,,2014-01-16 23:53:00,
2014-01-16 16:02:00,70.0,22.0,-100.00,SW,233,5.0,9.0,16,0.00,,,0.00,447.000000,,2014-01-17 00:02:00,
2014-01-16 16:11:00,70.0,22.0,-100.00,SW,233,5.0,9.0,16,0.00,,,0.00,447.000000,,2014-01-17 00:11:00,
2014-01-16 16:21:00,70.0,22.0,-100.00,SW,233,5.0,9.0,16,0.00,,,0.00,447.000000,,2014-01-17 00:21:00,
2014-01-16 16:53:00,70.0,20.0,-100.00,SW,219,4.0,7.0,15,0.00,,,0.00,258.000000,,2014-01-17 00:53:00,
2014-01-16 17:01:00,70.0,20.0,-100.00,SW,219,4.0,7.0,15,0.00,,,0.00,258.000000,,2014-01-17 01:01:00,
2014-01-16 17:22:00,70.0,20.0,-100.00,SW,219,4.0,7.0,15,0.00,,,0.00,258.000000,,2014-01-17 01:22:00,
2014-01-16 17:52:00,65.0,16.0,-100.00,SE,139,4.0,5.0,15,-99.99,,,0.00,55.000000,,2014-01-17 01:52:00,
2014-01-16 18:01:00,65.0,16.0,-100.00,SE,139,4.0,5.0,15,-99.99,,,0.00,55.000000,,2014-01-17 02:01:00,
2014-01-16 18:11:00,65.0,16.0,-100.00,SE,139,4.0,5.0,15,-99.99,,,0.00,55.000000,,2014-01-17 02:11:00,
2014-01-16 18:21:00,65.0,16.0,-100.00,SE,139,4.0,5.0,15,-99.99,,,0.00,55.000000,,2014-01-17 02:21:00,
2014-01-16 18:52:00,63.0,13.0,-100.00,SE,130,3.0,5.0,14,0.00,,,0.00,0.000000,,2014-01-17 02:52:00,
2014-01-16 19:02:00,63.0,13.0,-100.00,SE,130,3.0,5.0,14,0.00,,,0.00,0.000000,,2014-01-17 03:02:00,
2014-01-16 19:11:00,63.0,13.0,-100.00,SE,130,3.0,5.0,14,0.00,,,0.00,0.000000,,2014-01-17 03:11:00,
2014-01-16 19:21:00,63.0,13.0,-100.00,SE,130,3.0,5.0,14,0.00,,,0.00,0.000000,,2014-01-17 03:21:00,
2014-01-16 19:54:00,63.0,16.0,-100.00,SSE,147,4.0,4.0,16,-99.99,,,0.00,0.000000,,2014-01-17 03:54:00,
2014-01-16 20:04:00,63.0,16.0,-100.00,SSE,147,4.0,4.0,16,-99.99,,,0.00,0.000000,,2014-01-17 04:04:00,
2014-01-16 20:13:00,63.0,16.0,-100.00,SSE,147,4.0,4.0,16,-99.99,,,0.00,0.000000,,2014-01-17 04:13:00,
2014-01-16 20:23:00,63.0,16.0,-100.00,SSE,147,4.0,4.0,16,-99.99,,,0.00,0.000000,,2014-01-17 04:23:00,
2014-01-16 20:52:00,62.0,14.0,-100.00,ESE,106,2.0,5.0,15,0.00,,,0.00,0.000000,,2014-01-17 04:52:00,
2014-01-16 21:02:00,62.0,14.0,-100.00,ESE,106,2.0,5.0,15,0.00,,,0.00,0.000000,,2014-01-17 05:02:00,
2014-01-16 21:12:00,62.0,14.0,-100.00,ESE,106,2.0,5.0,15,0.00,,,0.00,0.000000,,2014-01-17 05:12:00,
2014-01-16 21:22:00,62.0,14.0,-100.00,ESE,106,2.0,5.0,15,0.00,,,0.00,0.000000,,2014-01-17 05:22:00,
2014-01-16 21:53:00,63.0,16.0,-100.00,ENE,61,4.0,4.0,16,0.00,,,0.00,0.000000,,2014-01-17 05:53:00,
2014-01-16 22:02:00,63.0,16.0,-100.00,ENE,61,4.0,4.0,16,0.00,,,0.00,0.000000,,2014-01-17 06:02:00,
2014-01-16 22:12:00,63.0,16.0,-100.00,ENE,61,4.0,4.0,16,0.00,,,0.00,0.000000,,2014-01-17 06:12:00,
2014-01-16 22:22:00,63.0,16.0,-100.00,ENE,61,4.0,4.0,16,0.00,,,0.00,0.000000,,2014-01-17 06:22:00,
2014-01-16 22:52:00,63.0,15.0,-100.00,SSE,155,3.0,4.0,15,0.00,,,0.00,0.000000,,2014-01-17 06:52:00,
2014-01-16 23:02:00,63.0,15.0,-100.00,SSE,155,3.0,4.0,15,0.00,,,0.00,0.000000,,2014-01-17 07:02:00,
2014-01-16 23:12:00,63.0,15.0,-100.00,SSE,155,3.0,4.0,15,0.00,,,0.00,0.000000,,2014-01-17 07:12:00,
2014-01-16 23:21:00,63.0,15.0,-100.00,SSE,155,3.0,4.0,15,0.00,,,0.00,0.000000,,2014-01-17 07:21:00,
2014-01-16 23:52:00,65.0,7.0,-100.00,SE,133,5.0,6.0,10,0.00,,,0.00,0.000000,,2014-01-17 07:52:00,